印度国家卫星-3D星 (INSAT-3D)

导读

INSAT 3D是印度(IN)于2013年7月25日发射的第三代静止轨道气象卫星,隶属于印度国家卫星系统(INSAT)系列。它搭载了先进的成像仪和大气探测设备,可提供高精度的气象观测、温度湿度垂直廓线探测,支持天气预报、 cyclone监测及水文研究,显著提升了印度及南亚地区的气象监测能力,目前仍在轨稳定运行,服务区域气象保障。

基本信息
目录编号:
39216
目录名称:
INSAT 3D
国际标识:
2013-038B
轨道中心:
EARTH
卫星名称:
印度国家卫星-3D星
卫星全名:
印度国家卫星-3D星 (INSAT-3D)
卫星状态:
在轨 (已飞行4799 天)
发射日期:
2013-07-25 UTC
国别 :
印度 (IN)
星等 :
--
该卫星已列入 空间交会检测服务 Space Conjunction Data Service (SCDS) ,当前飞行风险评估等级: 无高风险
轨道信息
数据来源 国际轨道数据 AOE轨道数据
星历时间 2026-09-14T07:01:19+0800
5小时前
查看轨道信息
2026-09-13T01:00:00+0800
1天前
查看轨道信息
半长轴 42164.588km 42164.42km
偏心率 0.0001283 0.0001256
轨道倾角 2.149° 2.146°
近地点辐角 109.366° 106.717°
升交点赤经 81.324° 81.357°
平近点角 277.110° 188.164°
近地点 35781.041km 35780.987km
远地点 35791.861km 35791.579km
周期 1436.090分钟 1436.081分钟
每日圈数 1.002723 1.002729
详细信息
平衡模式:
三轴稳定
覆盖范围:
全球
运营商:
印度空间研究组织
运营商所在国:
印度
制造商(研发单位):
印度空间研究组织
制造商所在国:
印度
使用方式:
暂无
卫星简介
印度先后发展了“印度卫星”(INSAT)和“地球静止卫星”(GSAT)两大静止轨道通信卫星系列,共发射卫星28颗,其中INSAT系列的前4颗向美国购买,后续卫星均由ISRO研制。在自行研制的24颗通信卫星中,有19颗发射成功,3颗发射失败,2颗发射部分失败。该卫星仍在工作。
2D轨道图
3D轨道图
轨道高度分析图
轨道倾角分析图
轨道综合分析图
查看轨道综合分析图
与全量物体交会距离演化趋势 订阅飞行安全评估服务
与全量物体交会风险概率演化趋势 订阅飞行安全评估服务